Time,TemperatureF,DewpointF,PressureIn,WindDirection,WindDirectionDegrees,WindSpeedMPH,WindSpeedGustMPH,Humidity,HourlyPrecipIn,Conditions,Clouds,dailyrainin,SolarRadiationWatts/m^2,SoftwareType,DateUTC
2013-11-15 00:01:00,37.0,23.0,-100.00,NW,315,4.0,5.0,57,0.00,,,0.02,0.000000,,2013-11-15 07:01:00,
2013-11-15 00:12:00,37.0,23.0,-100.00,NW,315,4.0,5.0,57,0.00,,,0.02,0.000000,,2013-11-15 07:12:00,
2013-11-15 00:42:00,38.0,22.0,-100.00,WNW,303,5.0,8.0,52,0.00,,,0.00,0.000000,,2013-11-15 07:42:00,
2013-11-15 00:52:00,38.0,22.0,-100.00,WNW,303,5.0,8.0,52,0.00,,,0.00,0.000000,,2013-11-15 07:52:00,
2013-11-15 01:01:00,38.0,22.0,-100.00,WNW,303,5.0,8.0,52,0.00,,,0.00,0.000000,,2013-11-15 08:01:00,
2013-11-15 01:11:00,38.0,22.0,-100.00,WNW,303,5.0,8.0,52,0.00,,,0.00,0.000000,,2013-11-15 08:11:00,
2013-11-15 01:42:00,39.0,25.0,-100.00,WNW,302,3.0,7.0,56,0.00,,,0.00,0.000000,,2013-11-15 08:42:00,
2013-11-15 01:52:00,39.0,25.0,-100.00,WNW,302,3.0,7.0,56,0.00,,,0.00,0.000000,,2013-11-15 08:52:00,
2013-11-15 02:02:00,39.0,25.0,-100.00,WNW,302,3.0,7.0,56,0.00,,,0.00,0.000000,,2013-11-15 09:02:00,
2013-11-15 02:11:00,39.0,25.0,-100.00,WNW,302,3.0,7.0,56,0.00,,,0.00,0.000000,,2013-11-15 09:11:00,
2013-11-15 02:43:00,37.0,25.0,-100.00,NW,314,6.0,8.0,61,0.00,,,0.00,0.000000,,2013-11-15 09:43:00,
2013-11-15 02:53:00,37.0,25.0,-100.00,NW,314,6.0,8.0,61,0.00,,,0.00,0.000000,,2013-11-15 09:53:00,
2013-11-15 03:03:00,37.0,25.0,-100.00,NW,314,6.0,8.0,61,0.00,,,0.00,0.000000,,2013-11-15 10:03:00,
2013-11-15 03:12:00,37.0,25.0,-100.00,NW,314,6.0,8.0,61,0.00,,,0.00,0.000000,,2013-11-15 10:12:00,
2013-11-15 03:43:00,37.0,26.0,-100.00,NW,312,3.0,7.0,63,0.00,,,-99.99,0.000000,,2013-11-15 10:43:00,
2013-11-15 03:52:00,37.0,26.0,-100.00,NW,312,3.0,7.0,63,0.00,,,-99.99,0.000000,,2013-11-15 10:52:00,
2013-11-15 04:02:00,37.0,26.0,-100.00,NW,312,3.0,7.0,63,0.00,,,-99.99,0.000000,,2013-11-15 11:02:00,
2013-11-15 04:12:00,37.0,26.0,-100.00,NW,312,3.0,7.0,63,0.00,,,-99.99,0.000000,,2013-11-15 11:12:00,
2013-11-15 04:42:00,35.0,28.0,-100.00,WNW,284,2.0,4.0,74,0.00,,,0.00,0.000000,,2013-11-15 11:42:00,
2013-11-15 04:52:00,35.0,28.0,-100.00,WNW,284,2.0,4.0,74,0.00,,,0.00,0.000000,,2013-11-15 11:52:00,
2013-11-15 05:02:00,35.0,28.0,-100.00,WNW,284,2.0,4.0,74,0.00,,,0.00,0.000000,,2013-11-15 12:02:00,
2013-11-15 05:11:00,35.0,28.0,-100.00,WNW,284,2.0,4.0,74,0.00,,,0.00,0.000000,,2013-11-15 12:11:00,
2013-11-15 05:42:00,34.0,26.0,-100.00,South,186,1.0,2.0,73,0.00,,,0.00,0.000000,,2013-11-15 12:42:00,
2013-11-15 05:52:00,34.0,26.0,-100.00,South,186,1.0,2.0,73,0.00,,,0.00,0.000000,,2013-11-15 12:52:00,
2013-11-15 06:01:00,34.0,26.0,-100.00,South,186,1.0,2.0,73,0.00,,,0.00,0.000000,,2013-11-15 13:01:00,
2013-11-15 06:11:00,34.0,26.0,-100.00,South,186,1.0,2.0,73,0.00,,,0.00,0.000000,,2013-11-15 13:11:00,
2013-11-15 06:42:00,37.0,28.0,-100.00,WSW,252,3.0,4.0,69,0.00,,,0.00,0.000000,,2013-11-15 13:42:00,
2013-11-15 06:52:00,37.0,28.0,-100.00,WSW,252,3.0,4.0,69,0.00,,,0.00,0.000000,,2013-11-15 13:52:00,
2013-11-15 07:02:00,37.0,28.0,-100.00,WSW,252,3.0,4.0,69,0.00,,,0.00,0.000000,,2013-11-15 14:02:00,
2013-11-15 07:11:00,37.0,28.0,-100.00,WSW,252,3.0,4.0,69,0.00,,,0.00,0.000000,,2013-11-15 14:11:00,
2013-11-15 10:12:00,47.0,28.0,-100.00,SSW,197,4.0,16.0,48,0.00,,,0.00,279.000000,,2013-11-15 17:12:00,
2013-11-15 10:42:00,48.0,27.0,-100.00,WSW,251,7.0,15.0,43,0.00,,,0.00,417.000000,,2013-11-15 17:42:00,
2013-11-15 10:52:00,48.0,27.0,-100.00,WSW,251,7.0,15.0,43,0.00,,,0.00,417.000000,,2013-11-15 17:52:00,
2013-11-15 11:02:00,48.0,27.0,-100.00,WSW,251,7.0,15.0,43,0.00,,,0.00,417.000000,,2013-11-15 18:02:00,
2013-11-15 11:12:00,48.0,27.0,-100.00,WSW,251,7.0,15.0,43,0.00,,,0.00,417.000000,,2013-11-15 18:12:00,
2013-11-15 11:42:00,48.0,29.0,-100.00,SW,217,5.0,15.0,47,0.00,,,0.00,345.000000,,2013-11-15 18:42:00,
2013-11-15 11:52:00,48.0,29.0,-100.00,SW,217,5.0,15.0,47,0.00,,,0.00,345.000000,,2013-11-15 18:52:00,
2013-11-15 12:02:00,48.0,29.0,-100.00,SW,217,5.0,15.0,47,0.00,,,0.00,345.000000,,2013-11-15 19:02:00,
2013-11-15 12:12:00,48.0,29.0,-100.00,SW,217,5.0,15.0,47,0.00,,,0.00,345.000000,,2013-11-15 19:12:00,
2013-11-15 12:42:00,51.0,27.0,-100.00,SW,222,7.0,16.0,39,0.00,,,0.00,602.000000,,2013-11-15 19:42:00,
2013-11-15 12:52:00,51.0,27.0,-100.00,SW,222,7.0,16.0,39,0.00,,,0.00,602.000000,,2013-11-15 19:52:00,
2013-11-15 13:01:00,51.0,27.0,-100.00,SW,222,7.0,16.0,39,0.00,,,0.00,602.000000,,2013-11-15 20:01:00,
2013-11-15 13:12:00,51.0,27.0,-100.00,SW,222,7.0,16.0,39,0.00,,,0.00,602.000000,,2013-11-15 20:12:00,
2013-11-15 13:42:00,49.0,26.0,-100.00,SW,232,4.0,24.0,40,0.00,,,0.00,298.000000,,2013-11-15 20:42:00,
2013-11-15 13:52:00,49.0,26.0,-100.00,SW,232,4.0,24.0,40,0.00,,,0.00,298.000000,,2013-11-15 20:52:00,
2013-11-15 14:02:00,49.0,26.0,-100.00,SW,232,4.0,24.0,40,0.00,,,0.00,298.000000,,2013-11-15 21:02:00,
2013-11-15 14:12:00,49.0,26.0,-100.00,SW,232,4.0,24.0,40,0.00,,,0.00,298.000000,,2013-11-15 21:12:00,
2013-11-15 14:13:00,52.0,28.0,-100.00,West,269,4.0,11.0,39,0.00,,,0.00,282.000000,,2013-11-15 21:13:00,
2013-11-15 14:43:00,52.0,28.0,-100.00,West,269,4.0,11.0,39,0.00,,,0.00,282.000000,,2013-11-15 21:43:00,
2013-11-15 14:55:00,52.0,28.0,-100.00,West,269,4.0,11.0,39,0.00,,,0.00,282.000000,,2013-11-15 21:55:00,
2013-11-15 15:03:00,52.0,28.0,-100.00,West,269,4.0,11.0,39,0.00,,,0.00,282.000000,,2013-11-15 22:03:00,
2013-11-15 15:43:00,51.0,24.0,-100.00,SSW,213,5.0,15.0,34,0.00,,,0.00,252.000000,,2013-11-15 22:43:00,
2013-11-15 15:53:00,51.0,24.0,-100.00,SSW,213,5.0,15.0,34,0.00,,,0.00,252.000000,,2013-11-15 22:53:00,
2013-11-15 16:02:00,51.0,24.0,-100.00,SSW,213,5.0,15.0,34,0.00,,,0.00,252.000000,,2013-11-15 23:02:00,
2013-11-15 16:12:00,51.0,24.0,-100.00,SSW,213,5.0,15.0,34,0.00,,,0.00,252.000000,,2013-11-15 23:12:00,
2013-11-15 16:43:00,47.0,24.0,-100.00,SW,222,3.0,9.0,40,0.00,,,0.00,109.000000,,2013-11-15 23:43:00,
2013-11-15 16:52:00,47.0,24.0,-100.00,SW,222,3.0,9.0,40,0.00,,,0.00,109.000000,,2013-11-15 23:52:00,
2013-11-15 17:03:00,47.0,24.0,-100.00,SW,222,3.0,9.0,40,0.00,,,0.00,109.000000,,2013-11-16 00:03:00,
2013-11-15 17:11:00,47.0,24.0,-100.00,SW,222,3.0,9.0,40,0.00,,,0.00,109.000000,,2013-11-16 00:11:00,
2013-11-15 17:42:00,42.0,25.0,-100.00,SW,233,5.0,7.0,51,0.00,,,0.00,3.000000,,2013-11-16 00:42:00,
2013-11-15 17:52:00,42.0,25.0,-100.00,SW,233,5.0,7.0,51,0.00,,,0.00,3.000000,,2013-11-16 00:52:00,
2013-11-15 18:01:00,42.0,25.0,-100.00,SW,233,5.0,7.0,51,0.00,,,0.00,3.000000,,2013-11-16 01:01:00,
2013-11-15 18:12:00,42.0,25.0,-100.00,SW,233,5.0,7.0,51,0.00,,,0.00,3.000000,,2013-11-16 01:12:00,
2013-11-15 18:42:00,43.0,24.0,-100.00,WSW,252,5.0,7.0,46,0.00,,,0.00,0.000000,,2013-11-16 01:42:00,
2013-11-15 18:52:00,43.0,24.0,-100.00,WSW,252,5.0,7.0,46,0.00,,,0.00,0.000000,,2013-11-16 01:52:00,
2013-11-15 19:02:00,43.0,24.0,-100.00,WSW,252,5.0,7.0,46,0.00,,,0.00,0.000000,,2013-11-16 02:02:00,
2013-11-15 19:12:00,43.0,24.0,-100.00,WSW,252,5.0,7.0,46,0.00,,,0.00,0.000000,,2013-11-16 02:12:00,
2013-11-15 19:42:00,37.0,22.0,-100.00,South,191,2.0,7.0,55,0.00,,,0.00,0.000000,,2013-11-16 02:42:00,
2013-11-15 19:52:00,37.0,22.0,-100.00,South,191,2.0,7.0,55,0.00,,,0.00,0.000000,,2013-11-16 02:52:00,
2013-11-15 20:02:00,37.0,22.0,-100.00,South,191,2.0,7.0,55,0.00,,,0.00,0.000000,,2013-11-16 03:02:00,
2013-11-15 20:11:00,37.0,22.0,-100.00,South,191,2.0,7.0,55,0.00,,,0.00,0.000000,,2013-11-16 03:11:00,
2013-11-15 21:13:00,44.0,22.0,-100.00,West,259,5.0,10.0,42,-99.99,,,0.00,0.000000,,2013-11-16 04:13:00,
2013-11-15 23:42:00,42.0,24.0,-100.00,SW,231,5.0,13.0,48,0.00,,,0.00,0.000000,,2013-11-16 06:42:00,
2013-11-15 23:52:00,42.0,24.0,-100.00,SW,231,5.0,13.0,48,0.00,,,0.00,0.000000,,2013-11-16 06:52:00,